| time (UTC) | temp C | wind direction | speed KPH | gust KPH | rain 1hr cm | rain 24hr cm | rain mn cm | humidity % | barometer mb |
| 20260507023005 | 15 | 200 | 0.0 | 3.2 | 0.00 | 0.00 | 0.00 | 71 | 1019.1 |
| 20260507014005 | 15 | 148 | 0.0 | 3.2 | 0.00 | 0.00 | 0.00 | 70 | 1019.1 |
| 20260507012004 | 15 | 14 | 1.6 | 3.2 | 0.00 | 0.00 | 0.00 | 71 | 1019.0 |
| 20260507011005 | 15 | 283 | 1.6 | 8.0 | 0.00 | 0.00 | 0.00 | 69 | 1019.1 |
| 20260507005004 | 15 | 145 | 0.0 | 8.0 | 0.00 | 0.00 | 0.00 | 70 | 1019.1 |
| 20260507003004 | 15 | 186 | 1.6 | 1.6 | 0.00 | 0.00 | 0.00 | 70 | 1019.2 |
| 20260507002004 | 15 | 197 | 0.0 | 4.8 | 0.00 | 0.00 | 0.00 | 70 | 1019.2 |
| 20260507001005 | 15 | 242 | 1.6 | 3.2 | 0.00 | 0.00 | 0.00 | 70 | 1019.3 |
| 20260507000005 | 15 | 338 | 1.6 | 4.8 | 0.00 | 0.00 | 0.00 | 70 | 1019.3 |
| 20260506235005 | 15 | 320 | 0.0 | 3.2 | 0.00 | 0.00 | 0.00 | 69 | 1019.2 |
| 20260506234005 | 15 | 176 | 0.0 | 4.8 | 0.00 | 0.00 | 0.00 | 68 | 1019.2 |
| 20260506233005 | 15 | 38 | 0.0 | 4.8 | 0.00 | 0.00 | 0.00 | 69 | 1019.2 |
| 20260506232004 | 15 | 193 | 1.6 | 3.2 | 0.00 | 0.00 | 0.00 | 69 | 1019.3 |
| 20260506231004 | 15 | 6 | 1.6 | 3.2 | 0.00 | 0.00 | 0.00 | 70 | 1019.3 |
| 20260506225005 | 14 | 243 | 0.0 | 4.8 | 0.00 | 0.00 | 0.00 | 71 | 1019.3 |
| 20260506224004 | 14 | 41 | 1.6 | 4.8 | 0.00 | 0.00 | 0.00 | 71 | 1019.4 |
| 20260506223005 | 14 | 32 | 3.2 | 8.0 | 0.00 | 0.00 | 0.00 | 70 | 1019.4 |
| 20260506222004 | 14 | 23 | 0.0 | 1.6 | 0.00 | 0.00 | 0.00 | 71 | 1019.4 |
| 20260506221004 | 15 | 218 | 1.6 | 4.8 | 0.00 | 0.00 | 0.00 | 71 | 1019.4 |
| 20260506220004 | 15 | 292 | 0.0 | 1.6 | 0.00 | 0.00 | 0.00 | 72 | 1019.3 |
| 20260506215006 | 15 | 220 | 3.2 | 3.2 | 0.00 | 0.00 | 0.00 | 72 | 1019.4 |
| 20260506214005 | 15 | 270 | 0.0 | 1.6 | 0.00 | 0.00 | 0.00 | 73 | 1019.4 |
| 20260506213005 | 14 | 294 | 0.0 | 1.6 | 0.00 | 0.00 | 0.00 | 74 | 1019.3 |
| 20260506212004 | 14 | 109 | 0.0 | 1.6 | 0.00 | 0.00 | 0.00 | 74 | 1019.4 |
| 20260506211005 | 14 | 176 | 0.0 | 3.2 | 0.00 | 0.00 | 0.00 | 75 | 1019.3 |
| 20260506210005 | 14 | 278 | 1.6 | 3.2 | 0.00 | 0.00 | 0.00 | 75 | 1019.4 |
| 20260506205005 | 14 | 31 | 0.0 | 1.6 | 0.00 | 0.00 | 0.00 | 75 | 1019.3 |
| 20260506204004 | 14 | 300 | 1.6 | 3.2 | 0.00 | 0.00 | 0.00 | 75 | 1019.4 |
| 20260506203005 | 14 | 199 | 1.6 | 3.2 | 0.00 | 0.00 | 0.00 | 76 | 1019.3 |
| 20260506202004 | 14 | 95 | 0.0 | 1.6 | 0.00 | 0.00 | 0.00 | 78 | 1019.4 |
| 20260506201005 | 13 | 278 | 0.0 | 1.6 | 0.00 | 0.00 | 0.00 | 78 | 1019.3 |
| 20260506200005 | 13 | 184 | 0.0 | 1.6 | 0.00 | 0.00 | 0.00 | 79 | 1019.3 |
| 20260506195005 | 13 | 109 | 0.0 | 4.8 | 0.00 | 0.00 | 0.00 | 80 | 1019.2 |
| 20260506194004 | 13 | 270 | 0.0 | 1.6 | 0.00 | 0.00 | 0.00 | 81 | 1019.1 |
| 20260506193005 | 13 | 16 | 0.0 | 0.0 | 0.00 | 0.00 | 0.00 | 81 | 1019.0 |
| 20260506191005 | 13 | 219 | 0.0 | 3.2 | 0.00 | 0.00 | 0.00 | 81 | 1019.0 |
| 20260506190005 | 13 | 13 | 0.0 | 1.6 | 0.00 | 0.00 | 0.00 | 82 | 1018.9 |
| 20260506185004 | 13 | 24 | 0.0 | 1.6 | 0.00 | 0.00 | 0.00 | 82 | 1019.1 |
| 20260506184004 | 13 | 248 | 0.0 | 3.2 | 0.00 | 0.00 | 0.00 | 82 | 1019.1 |
| 20260506183005 | 13 | 179 | 0.0 | 0.0 | 0.00 | 0.00 | 0.00 | 83 | 1019.1 |
| 20260506182005 | 13 | 179 | 0.0 | 3.2 | 0.00 | 0.00 | 0.00 | 83 | 1019.1 |
| 20260506181004 | 13 | 292 | 0.0 | 3.2 | 0.00 | 0.00 | 0.00 | 84 | 1018.9 |
| 20260506180005 | 13 | 69 | 1.6 | 3.2 | 0.00 | 0.00 | 0.00 | 84 | 1018.8 |
| 20260506175005 | 13 | 20 | 0.0 | 0.0 | 0.00 | 0.00 | 0.00 | 85 | 1018.9 |
| 20260506174005 | 13 | 20 | 0.0 | 0.0 | 0.00 | 0.00 | 0.00 | 86 | 1018.8 |
| 20260506172005 | 13 | 282 | 0.0 | 0.0 | 0.00 | 0.00 | 0.00 | 87 | 1019.2 |
| 20260506171005 | 13 | 282 | 0.0 | 1.6 | 0.00 | 0.00 | 0.00 | 88 | 1019.1 |
| 20260506165005 | 13 | 251 | 0.0 | 3.2 | 0.00 | 0.00 | 0.00 | 87 | 1019.0 |
| 20260506163004 | 13 | 38 | 0.0 | 0.0 | 0.00 | 0.00 | 0.00 | 88 | 1018.6 |
| 20260506162004 | 13 | 38 | 0.0 | 0.0 | 0.00 | 0.00 | 0.00 | 88 | 1018.4 |
| 20260506160005 | 13 | 191 | 0.0 | 0.0 | 0.00 | 0.00 | 0.00 | 88 | 1018.5 |
| 20260506155004 | 13 | 191 | 0.0 | 0.0 | 0.00 | 0.00 | 0.00 | 88 | 1018.6 |
| 20260506154004 | 13 | 196 | 0.0 | 1.6 | 0.00 | 0.00 | 0.00 | 88 | 1018.8 |
| 20260506153004 | 13 | 215 | 0.0 | 3.2 | 0.00 | 0.00 | 0.00 | 87 | 1018.7 |
| 20260506152004 | 13 | 61 | 0.0 | 0.0 | 0.00 | 0.00 | 0.00 | 87 | 1018.5 |
| 20260506150005 | 13 | 61 | 0.0 | 0.0 | 0.00 | 0.00 | 0.00 | 87 | 1018.3 |
| 20260506144005 | 13 | 61 | 0.0 | 0.0 | 0.00 | 0.00 | 0.00 | 86 | 1018.5 |
| 20260506143005 | 13 | 61 | 0.0 | 0.0 | 0.00 | 0.00 | 0.00 | 86 | 1018.4 |
| 20260506142005 | 13 | 61 | 0.0 | 3.2 | 0.00 | 0.00 | 0.00 | 85 | 1018.1 |
| 20260506141004 | 13 | 44 | 0.0 | 1.6 | 0.00 | 0.00 | 0.00 | 85 | 1018.1 |
| 20260506140005 | 13 | 304 | 0.0 | 0.0 | 0.00 | 0.00 | 0.00 | 84 | 1018.3 |
| 20260506135004 | 13 | 304 | 0.0 | 0.0 | 0.00 | 0.00 | 0.00 | 84 | 1018.2 |
| 20260506134004 | 13 | 304 | 0.0 | 1.6 | 0.00 | 0.00 | 0.00 | 83 | 1018.2 |
| 20260506133005 | 13 | 11 | 0.0 | 0.0 | 0.00 | 0.00 | 0.00 | 83 | 1018.0 |
| 20260506132005 | 13 | 11 | 0.0 | 0.0 | 0.00 | 0.00 | 0.00 | 83 | 1018.0 |
| 20260506131005 | 13 | 11 | 0.0 | 0.0 | 0.00 | 0.00 | 0.00 | 82 | 1017.5 |
| 20260506130005 | 13 | 11 | 0.0 | 0.0 | 0.00 | 0.00 | 0.00 | 82 | 1017.7 |
| 20260506125005 | 13 | 11 | 0.0 | 0.0 | 0.00 | 0.00 | 0.00 | 81 | 1017.6 |
| 20260506124004 | 13 | 11 | 0.0 | 0.0 | 0.00 | 0.00 | 0.00 | 81 | 1017.5 |
| 20260506123004 | 13 | 11 | 0.0 | 0.0 | 0.00 | 0.00 | 0.00 | 81 | 1017.4 |
| 20260506122004 | 13 | 11 | 0.0 | 0.0 | 0.00 | 0.00 | 0.00 | 80 | 1017.4 |
| 20260506121005 | 13 | 11 | 0.0 | 0.0 | 0.00 | 0.00 | 0.00 | 81 | 1017.4 |
| 20260506120005 | 13 | 11 | 0.0 | 0.0 | 0.00 | 0.00 | 0.00 | 80 | 1017.3 |
| 20260506115004 | 13 | 11 | 0.0 | 0.0 | 0.00 | 0.00 | 0.00 | 80 | 1017.2 |
| 20260506114005 | 13 | 11 | 0.0 | 0.0 | 0.00 | 0.00 | 0.00 | 80 | 1017.1 |
| 20260506113005 | 13 | 11 | 0.0 | 0.0 | 0.00 | 0.00 | 0.00 | 80 | 1017.1 |
| 20260506112004 | 13 | 11 | 0.0 | 3.2 | 0.00 | 0.00 | 0.00 | 80 | 1017.1 |
| 20260506111005 | 13 | 182 | 0.0 | 1.6 | 0.00 | 0.00 | 0.00 | 80 | 1016.9 |
| 20260506110005 | 13 | 299 | 0.0 | 1.6 | 0.00 | 0.00 | 0.00 | 80 | 1016.9 |
| 20260506105005 | 13 | 298 | 1.6 | 3.2 | 0.00 | 0.00 | 0.00 | 80 | 1016.8 |
| 20260506104004 | 13 | 193 | 0.0 | 1.6 | 0.00 | 0.00 | 0.00 | 80 | 1016.7 |
| 20260506103004 | 13 | 241 | 0.0 | 1.6 | 0.00 | 0.00 | 0.00 | 80 | 1016.6 |
| 20260506102004 | 13 | 289 | 0.0 | 1.6 | 0.00 | 0.00 | 0.00 | 80 | 1016.6 |
| 20260506101004 | 13 | 213 | 0.0 | 1.6 | 0.00 | 0.00 | 0.00 | 80 | 1016.5 |
| 20260506100005 | 13 | 248 | 0.0 | 1.6 | 0.00 | 0.00 | 0.00 | 81 | 1016.4 |
| 20260506095005 | 13 | 48 | 0.0 | 0.0 | 0.00 | 0.00 | 0.00 | 81 | 1016.3 |
| 20260506093005 | 13 | 241 | 0.0 | 3.2 | 0.00 | 0.00 | 0.00 | 82 | 1016.2 |
| 20260506092004 | 13 | 184 | 0.0 | 3.2 | 0.00 | 0.00 | 0.00 | 83 | 1016.1 |
| 20260506091004 | 12 | 299 | 0.0 | 1.6 | 0.00 | 0.00 | 0.00 | 84 | 1016.0 |
| 20260506090004 | 12 | 181 | 0.0 | 0.0 | 0.00 | 0.00 | 0.00 | 85 | 1016.0 |
| 20260506085004 | 12 | 181 | 0.0 | 0.0 | 0.00 | 0.00 | 0.00 | 86 | 1015.9 |
| 20260506084005 | 11 | 181 | 0.0 | 0.0 | 0.00 | 0.00 | 0.00 | 86 | 1015.8 |
| 20260506082005 | 11 | 181 | 0.0 | 0.0 | 0.00 | 0.00 | 0.00 | 85 | 1015.7 |
| 20260506081005 | 12 | 181 | 0.0 | 0.0 | 0.00 | 0.00 | 0.00 | 85 | 1015.7 |
| 20260506072004 | 12 | 181 | 0.0 | 0.0 | 0.00 | 0.00 | 0.00 | 84 | 1015.5 |
| 20260506062004 | 13 | 181 | 0.0 | 0.0 | 0.00 | 0.00 | 0.00 | 82 | 1015.0 |
| 20260506061005 | 13 | 181 | 0.0 | 0.0 | 0.00 | 0.00 | 0.00 | 81 | 1014.8 |
| 20260506051004 | 13 | 181 | 0.0 | 0.0 | 0.00 | 0.00 | 0.00 | 80 | 1014.3 |
| 20260506045004 | 14 | 181 | 0.0 | 0.0 | 0.00 | 0.00 | 0.00 | 79 | 1014.2 |
| 20260506044004 | 14 | 181 | 0.0 | 0.0 | 0.00 | 0.00 | 0.00 | 78 | 1014.1 |
| 20260506043005 | 15 | 181 | 0.0 | 0.0 | 0.00 | 0.00 | 0.00 | 77 | 1014.1 |
| 20260506042005 | 15 | 181 | 0.0 | 0.0 | 0.00 | 0.00 | 0.00 | 76 | 1014.1 |
| 20260506041005 | 15 | 181 | 0.0 | 0.0 | 0.00 | 0.00 | 0.00 | 74 | 1013.9 |
| 20260506035004 | 16 | 181 | 0.0 | 0.0 | 0.00 | 0.00 | 0.00 | 71 | 1013.8 |
| 20260506034004 | 16 | 181 | 0.0 | 0.0 | 0.00 | 0.00 | 0.00 | 70 | 1013.7 |
| 20260506033005 | 17 | 181 | 0.0 | 0.0 | 0.00 | 0.00 | 0.00 | 68 | 1013.6 |
| 20260506032004 | 17 | 181 | 0.0 | 0.0 | 0.00 | 0.00 | 0.00 | 67 | 1013.6 |
| 20260506030005 | 18 | 181 | 0.0 | 1.6 | 0.00 | 0.00 | 0.00 | 65 | 1013.5 |
| 20260506025004 | 18 | 160 | 0.0 | 4.8 | 0.00 | 0.00 | 0.00 | 64 | 1013.4 |
| 20260506024005 | 18 | 251 | 0.0 | 3.2 | 0.00 | 0.00 | 0.00 | 63 | 1013.3 |